Tracking 32420 objects as of 8-Dec-2025
HD Live streaming from Space Station
objects crossing your sky now

STARLINK-34834

Track STARLINK-34834 now!
10-day predictions
STARLINK-34834 is classified as:


NORAD ID: 65295
Int'l Code: 2025-184Y
Perigee: 556.1 km
Apogee: 557.1 km
Inclination: 97.6 °
Period: 95.6 minutes
Semi major axis: 6927 km
RCS: Unknown
Launch date: August 22, 2025
Source: United States (US)
Launch site: AIR FORCE WESTERN TEST RANGE (AFWTR)
Your satellite tracking list
Your tracking list is empty




NASA's NSSDC Master Catalog

Two Line Element Set (TLE):
1 65295U 25184Y   25342.16539755  .00004876  00000-0  34190-3 0  9999
2 65295  97.6049  32.3566 0000711  75.5647 284.5658 15.05652974 17529
Source of the keplerian elements: AFSPC